Location: Newark
(35.5300°N, 14.3000°E)
Time: 13:39:36
(UTC+00:00)

S-56A Canister/Altair - Pass Details

Date: 15 November 2019
Orbit: 633 x 2499 km, 38.9° (Epoch: 07 December)

Event Time Altitude Azimuth Distance (km) Brightness Sun altitude
Rises 17:33:18 0° 250° (WSW) 4,802 13.1 -19.8°
Reaches altitude 10° 17:36:59 10° 250° (WSW) 3,513 12.0 -20.5°
Maximum altitude 17:45:22 90° 185° (S) 1,023 8.0 -22.2°
Enters shadow 17:47:23 46° 72° (ENE) 1,237 8.1 -22.6°
